ANA108 RJTT-KSFO

Flight info

Callsign ANA108
Flight time N/A
Altitude 33000
Route OPPAR UTIBO Y803 POROT Y809 AVBET OTR11 LEPKI 40N160E 41N170E/N0491F350 41N180E 40N170W 39N160W 40N150W/N0481F370 40N140W 39N130W DCT DACEM DCT PAINT PIRAT3
Aircraft B77W/H-SDE1E2E3FGHIJ2J3J4J5M1RWXY/LB1D1

Departure

Time 2026-05-04 10:32
Airport Tokyo Haneda International Airport (RJTT)

Arrival

Time N/A
Airport San Francisco International Airport (KSFO)
Time Latitude Longitude Altitude Speed Heading
2026-05-04 10:25 35.55638 139.77547 29 ft 14 kts 328°
2026-05-04 10:26 35.55738 139.77469 29 ft 25 kts 329°
2026-05-04 10:26 35.55866 139.77383 27 ft 18 kts 330°
2026-05-04 10:26 35.55972 139.77308 28 ft 18 kts 330°
2026-05-04 10:26 35.56079 139.77231 29 ft 18 kts 330°
2026-05-04 10:27 35.56179 139.77145 29 ft 18 kts 307°
2026-05-04 10:27 35.56231 139.77006 27 ft 18 kts 312°
2026-05-04 10:27 35.56335 139.76921 27 ft 18 kts 330°
2026-05-04 10:27 35.56450 139.76946 27 ft 18 kts 47°
2026-05-04 10:28 35.56434 139.77087 27 ft 18 kts 107°
2026-05-04 10:28 35.56495 139.77213 27 ft 18 kts 40°
2026-05-04 10:28 35.56599 139.77302 27 ft 18 kts 34°
2026-05-04 10:28 35.56704 139.77388 27 ft 18 kts 34°
2026-05-04 10:29 35.56775 139.77447 27 ft 9 kts 34°
2026-05-04 10:29 35.56814 139.77501 27 ft 8 kts 65°
2026-05-04 10:29 35.56812 139.77556 27 ft 6 kts 109°
2026-05-04 10:29 35.56793 139.77602 28 ft 6 kts 118°
2026-05-04 10:30 35.56768 139.77642 29 ft 6 kts 134°
2026-05-04 10:30 35.56744 139.77658 30 ft 6 kts 161°
2026-05-04 10:30 35.56690 139.77648 30 ft 6 kts 199°
2026-05-04 10:30 35.56653 139.77623 30 ft 6 kts 212°
2026-05-04 10:31 35.56485 139.77479 30 ft 69 kts 214°
2026-05-04 10:31 35.55841 139.76928 30 ft 154 kts 214°
2026-05-04 10:32 35.49744 139.71562 2822 ft 268 kts 151°
2026-05-04 10:33 35.48106 139.72718 3411 ft 274 kts 152°
2026-05-04 10:33 35.46327 139.73639 4159 ft 280 kts 162°
2026-05-04 10:33 35.44417 139.74230 4921 ft 282 kts 170°
2026-05-04 10:33 35.42559 139.74998 5582 ft 285 kts 154°
2026-05-04 10:34 35.40667 139.75811 6190 ft 289 kts 169°
2026-05-04 10:34 35.38676 139.76099 6995 ft 289 kts 179°
2026-05-04 10:34 35.36687 139.76174 7918 ft 282 kts 184°
2026-05-04 10:34 35.34751 139.76192 8901 ft 276 kts 185°
2026-05-04 10:35 35.32817 139.76194 9677 ft 278 kts 185°
2026-05-04 10:35 35.30873 139.76194 10382 ft 281 kts 186°
2026-05-04 10:35 35.28867 139.76188 10707 ft 300 kts 187°
2026-05-04 10:35 35.26696 139.76183 10867 ft 323 kts 189°
2026-05-04 10:36 35.24375 139.76181 11073 ft 345 kts 189°
2026-05-04 10:36 35.21972 139.76189 11689 ft 351 kts 188°
2026-05-04 10:36 35.19493 139.76584 12326 ft 373 kts 172°
2026-05-04 10:36 35.17076 139.77841 13077 ft 380 kts 166°
2026-05-04 10:37 35.14663 139.79161 13849 ft 380 kts 168°
2026-05-04 10:37 35.12233 139.80447 14547 ft 381 kts 168°
2026-05-04 10:37 35.09773 139.81727 15140 ft 386 kts 169°
2026-05-04 10:37 35.07282 139.83016 15737 ft 391 kts 169°
2026-05-04 10:39 34.95925 139.97791 19003 ft 515 kts 91°
2026-05-04 10:39 34.96532 140.02143 19533 ft 525 kts 80°
2026-05-04 10:39 34.97480 140.06470 19980 ft 532 kts 77°
2026-05-04 10:40 34.98517 140.10826 20435 ft 537 kts 77°
2026-05-04 10:40 34.99531 140.15219 20908 ft 540 kts 78°
2026-05-04 10:40 35.00489 140.19678 21421 ft 543 kts 79°
2026-05-04 10:40 35.01375 140.24101 21916 ft 546 kts 80°
2026-05-04 10:41 35.02246 140.28643 22405 ft 549 kts 81°
2026-05-04 10:41 35.03103 140.33196 22867 ft 553 kts 81°
2026-05-04 10:41 35.03966 140.37787 23300 ft 557 kts 81°
2026-05-04 10:41 35.04842 140.42410 23668 ft 560 kts 81°
2026-05-04 10:42 35.05728 140.47054 24056 ft 563 kts 81°
2026-05-04 10:42 35.06619 140.51724 24462 ft 565 kts 81°
2026-05-04 10:42 35.07570 140.56388 24860 ft 569 kts 77°
2026-05-04 10:42 35.08818 140.60991 25223 ft 574 kts 71°
2026-05-04 10:43 35.10331 140.65509 25594 ft 577 kts 69°
2026-05-04 10:44 35.21229 140.97750 27980 ft 596 kts 70°
2026-05-04 10:45 35.22782 141.02460 28284 ft 598 kts 70°
2026-05-04 10:45 35.24344 141.07200 28578 ft 600 kts 71°
2026-05-04 10:45 35.25905 141.11939 28856 ft 602 kts 71°
2026-05-04 10:45 35.27472 141.16700 29155 ft 604 kts 71°
2026-05-04 10:46 35.29039 141.21462 29552 ft 603 kts 71°
2026-05-04 10:46 35.30600 141.26212 30008 ft 600 kts 71°
2026-05-04 10:46 35.32154 141.30947 30445 ft 597 kts 71°
2026-05-04 10:46 35.33699 141.35663 30840 ft 595 kts 71°
2026-05-04 10:47 35.35230 141.40346 31258 ft 592 kts 71°
2026-05-04 10:47 35.36756 141.45022 31649 ft 590 kts 72°
2026-05-04 10:47 35.38275 141.49688 32010 ft 589 kts 72°
2026-05-04 10:47 35.39790 141.54346 32362 ft 588 kts 72°
2026-05-04 10:49 35.50314 141.86906 32724 ft 583 kts 72°
2026-05-04 10:50 35.53285 141.96166 32722 ft 583 kts 72°
2026-05-04 10:52 35.65102 142.33276 32725 ft 584 kts 72°
2026-05-04 10:52 35.68043 142.42585 32726 ft 584 kts 73°
2026-05-04 10:54 35.79737 142.79890 32717 ft 584 kts 73°
2026-05-04 10:56 35.91268 143.17160 32723 ft 581 kts 74°
2026-05-04 10:57 35.93470 143.26683 32705 ft 573 kts 85°
2026-05-04 10:57 35.94458 143.36358 32733 ft 567 kts 90°
2026-05-04 10:58 35.95363 143.46037 32728 ft 568 kts 89°
2026-05-04 10:58 35.96356 143.55718 32724 ft 569 kts 89°
2026-05-04 10:59 35.97335 143.65349 32739 ft 569 kts 89°
2026-05-04 10:59 35.98307 143.75045 32750 ft 569 kts 89°
2026-05-04 11:00 35.99273 143.84750 32724 ft 569 kts 89°
2026-05-04 11:02 36.03046 144.23454 32738 ft 567 kts 89°
2026-05-04 11:05 36.09761 144.95914 32757 ft 565 kts 89°
2026-05-04 11:06 36.10622 145.05574 32752 ft 564 kts 89°
2026-05-04 11:06 36.11475 145.15225 32750 ft 564 kts 89°
2026-05-04 11:10 36.21559 145.81881 32751 ft 563 kts 80°
2026-05-04 11:12 36.29239 146.19352 32760 ft 561 kts 80°
2026-05-04 11:12 36.31148 146.28747 32760 ft 562 kts 80°
2026-05-04 11:13 36.33051 146.38153 32758 ft 562 kts 80°
2026-05-04 11:13 36.34948 146.47575 32755 ft 563 kts 80°
2026-05-04 11:16 36.44319 146.94720 32755 ft 562 kts 81°
2026-05-04 11:16 36.46168 147.04150 32759 ft 561 kts 81°
2026-05-04 11:17 36.47702 147.12003 32745 ft 560 kts 81°
2026-05-04 11:19 36.54937 147.49455 32760 ft 555 kts 81°
2026-05-04 11:19 36.56723 147.58804 32763 ft 555 kts 81°
2026-05-04 11:20 36.58502 147.68164 32758 ft 555 kts 81°
2026-05-04 11:20 36.60275 147.77534 32764 ft 556 kts 81°
2026-05-04 11:22 36.67292 148.15033 32768 ft 556 kts 81°
2026-05-04 11:23 36.69029 148.24429 32762 ft 556 kts 81°
2026-05-04 11:25 36.75026 148.57205 32765 ft 555 kts 81°
2026-05-04 11:25 36.76728 148.66606 32775 ft 555 kts 81°
2026-05-04 11:27 36.84310 149.09047 32781 ft 557 kts 81°
2026-05-04 11:28 36.85966 149.18443 32769 ft 556 kts 81°
2026-05-04 11:28 36.87621 149.27875 32779 ft 556 kts 81°
2026-05-04 11:29 36.89265 149.37299 32775 ft 555 kts 81°
2026-05-04 11:29 36.90902 149.46726 32785 ft 554 kts 81°
2026-05-04 11:33 37.04142 150.12000 32808 ft 559 kts 66°
2026-05-04 11:33 37.07377 150.20873 32795 ft 560 kts 67°
2026-05-04 11:34 37.10564 150.29774 32802 ft 559 kts 67°
2026-05-04 11:34 37.13704 150.38683 32801 ft 559 kts 68°
2026-05-04 11:35 37.16828 150.47601 32796 ft 558 kts 68°
2026-05-04 11:35 37.19944 150.56512 32807 ft 557 kts 68°
2026-05-04 11:36 37.23054 150.65419 32807 ft 557 kts 68°
2026-05-04 11:36 37.26137 150.74273 32808 ft 556 kts 68°
2026-05-04 11:37 37.29229 150.83182 32805 ft 556 kts 68°
2026-05-04 11:37 37.32314 150.92097 32806 ft 556 kts 68°
2026-05-04 11:38 37.35392 151.01019 32807 ft 556 kts 68°
2026-05-04 11:38 37.38464 151.09950 32809 ft 556 kts 68°
2026-05-04 11:39 37.41528 151.18885 32809 ft 557 kts 68°
2026-05-04 11:41 37.52198 151.50209 32812 ft 557 kts 68°
2026-05-04 11:41 37.55232 151.59177 32817 ft 556 kts 68°
2026-05-04 11:42 37.58260 151.68154 32817 ft 556 kts 68°
2026-05-04 11:42 37.61283 151.77146 32821 ft 556 kts 68°
2026-05-04 11:43 37.64274 151.86067 32816 ft 555 kts 68°
2026-05-04 11:43 37.67281 151.95066 32799 ft 555 kts 68°
2026-05-04 11:44 37.70273 152.04048 32811 ft 554 kts 68°
2026-05-04 11:44 37.73257 152.13032 32810 ft 554 kts 68°
2026-05-04 11:45 37.76217 152.21971 32818 ft 554 kts 68°
2026-05-04 11:45 37.79184 152.30960 32818 ft 554 kts 68°
2026-05-04 11:46 37.82144 152.39954 32819 ft 554 kts 68°
2026-05-04 11:46 37.85098 152.48961 32822 ft 554 kts 68°
2026-05-04 11:47 37.88044 152.57969 32826 ft 554 kts 68°
2026-05-04 11:47 37.90967 152.66935 32826 ft 554 kts 68°
2026-05-04 11:48 37.93900 152.75960 32828 ft 554 kts 68°
2026-05-04 11:48 37.96826 152.84994 32824 ft 554 kts 68°
2026-05-04 11:49 37.99742 152.94023 32829 ft 553 kts 68°
2026-05-04 11:49 38.02655 153.03073 32827 ft 553 kts 68°
2026-05-04 11:50 38.05556 153.12112 32827 ft 552 kts 68°
2026-05-04 11:50 38.08425 153.21084 32834 ft 552 kts 68°
2026-05-04 11:51 38.11304 153.30112 32828 ft 551 kts 68°
2026-05-04 11:51 38.14172 153.39135 32844 ft 550 kts 68°
2026-05-04 11:52 38.17033 153.48166 32848 ft 550 kts 68°
2026-05-04 11:52 38.19872 153.57154 32834 ft 550 kts 68°
2026-05-04 11:53 38.22715 153.66187 32843 ft 549 kts 68°
2026-05-04 11:53 38.25552 153.75228 32841 ft 549 kts 68°
2026-05-04 11:55 38.36785 154.11315 32864 ft 548 kts 69°
2026-05-04 11:56 38.39579 154.20364 32851 ft 549 kts 69°
2026-05-04 11:56 38.42372 154.29441 32853 ft 550 kts 69°
2026-05-04 11:57 38.45167 154.38553 32856 ft 551 kts 68°
2026-05-04 11:57 38.47958 154.47683 32859 ft 551 kts 68°
2026-05-04 11:58 38.50739 154.56808 32859 ft 552 kts 69°
2026-05-04 11:58 38.53501 154.65901 32863 ft 552 kts 69°
2026-05-04 11:59 38.56270 154.75050 32871 ft 551 kts 68°
2026-05-04 11:59 38.59025 154.84184 32867 ft 551 kts 69°
2026-05-04 12:00 38.61772 154.93319 32873 ft 550 kts 69°
2026-05-04 12:00 38.64512 155.02464 32879 ft 549 kts 69°
2026-05-04 12:01 38.67240 155.11598 32881 ft 549 kts 69°
2026-05-04 12:02 38.76704 155.43525 32880 ft 549 kts 69°
2026-05-04 12:03 38.79396 155.52679 32883 ft 549 kts 69°
2026-05-04 12:03 38.82084 155.61847 32880 ft 549 kts 69°
2026-05-04 12:04 38.84309 155.69461 32888 ft 549 kts 69°
2026-05-04 12:04 38.86982 155.78637 32893 ft 549 kts 69°
2026-05-04 12:05 38.89649 155.87825 32896 ft 549 kts 69°
2026-05-04 12:05 38.92309 155.97016 32898 ft 549 kts 69°
2026-05-04 12:06 38.94958 156.06206 32903 ft 548 kts 69°
2026-05-04 12:06 38.97585 156.15350 32910 ft 548 kts 69°
2026-05-04 12:07 39.00219 156.24548 32906 ft 548 kts 69°
2026-05-04 12:07 39.02847 156.33761 32911 ft 548 kts 69°
2026-05-04 12:08 39.05463 156.42961 32914 ft 548 kts 69°
2026-05-04 12:08 39.08074 156.52174 32915 ft 547 kts 69°
2026-05-04 12:09 39.10676 156.61393 32916 ft 547 kts 69°
2026-05-04 12:09 39.13256 156.70562 32916 ft 547 kts 69°
2026-05-04 12:10 39.15841 156.79784 32926 ft 547 kts 70°
2026-05-04 12:10 39.18416 156.88999 32927 ft 547 kts 70°
2026-05-04 12:11 39.20987 156.98236 32925 ft 547 kts 69°
2026-05-04 12:11 39.23550 157.07477 32932 ft 547 kts 70°
2026-05-04 12:12 39.26107 157.16728 32940 ft 548 kts 70°
2026-05-04 12:12 39.28664 157.26016 32938 ft 549 kts 70°
2026-05-04 12:14 39.38832 157.63275 32953 ft 550 kts 70°
2026-05-04 12:15 39.41358 157.72618 32952 ft 550 kts 70°
2026-05-04 12:15 39.43878 157.81969 32962 ft 549 kts 70°
2026-05-04 12:16 39.46387 157.91319 32959 ft 549 kts 70°
2026-05-04 12:16 39.48866 158.00586 32963 ft 549 kts 70°
2026-05-04 12:17 39.51356 158.09933 32967 ft 548 kts 70°
2026-05-04 12:17 39.53840 158.19289 32967 ft 548 kts 70°
2026-05-04 12:18 39.56300 158.28594 32976 ft 548 kts 70°
2026-05-04 12:18 39.58764 158.37944 32975 ft 548 kts 70°
2026-05-04 12:19 39.61219 158.47299 32979 ft 548 kts 70°
2026-05-04 12:19 39.63672 158.56677 32978 ft 548 kts 70°
2026-05-04 12:20 39.66114 158.66051 32984 ft 548 kts 70°
2026-05-04 12:20 39.68553 158.75449 32992 ft 548 kts 70°
2026-05-04 12:21 39.70978 158.84832 32989 ft 549 kts 70°
2026-05-04 12:21 39.73398 158.94229 32994 ft 549 kts 70°
2026-05-04 12:22 39.75815 159.03648 32998 ft 549 kts 70°
2026-05-04 12:22 39.78207 159.13008 33000 ft 549 kts 70°
2026-05-04 12:23 39.80612 159.22454 33005 ft 550 kts 70°
2026-05-04 12:23 39.83011 159.31914 33009 ft 550 kts 70°
2026-05-04 12:24 39.85403 159.41382 33015 ft 551 kts 70°
2026-05-04 12:24 39.87791 159.50873 33014 ft 551 kts 70°
2026-05-04 12:25 39.90176 159.60392 33018 ft 552 kts 70°
2026-05-04 12:25 39.92549 159.69898 33028 ft 552 kts 70°
2026-05-04 12:26 39.94904 159.79369 33023 ft 552 kts 70°
2026-05-04 12:26 39.97266 159.88909 33040 ft 552 kts 70°
2026-05-04 12:27 39.99614 159.98453 33037 ft 553 kts 71°
2026-05-04 12:27 40.01320 160.08252 33047 ft 554 kts 78°
2026-05-04 12:28 40.02680 160.18157 33042 ft 555 kts 79°
2026-05-04 12:28 40.04031 160.28007 33040 ft 556 kts 78°
2026-05-04 12:29 40.05427 160.37943 33054 ft 556 kts 78°
2026-05-04 12:29 40.06837 160.47894 33074 ft 558 kts 78°
2026-05-04 12:30 40.07541 160.52886 33301 ft 559 kts 78°
2026-05-04 12:30 40.08242 160.57874 33654 ft 558 kts 78°
2026-05-04 12:30 40.08937 160.62853 34021 ft 556 kts 78°
2026-05-04 12:30 40.09629 160.67823 34346 ft 554 kts 78°
2026-05-04 12:31 40.10315 160.72771 34653 ft 553 kts 78°
2026-05-04 12:31 40.10989 160.77654 34925 ft 552 kts 78°
2026-05-04 12:31 40.12353 160.87571 35043 ft 556 kts 78°
2026-05-04 12:32 40.14382 161.02457 35075 ft 553 kts 78°
2026-05-04 12:33 40.15718 161.12333 35074 ft 551 kts 78°
2026-05-04 12:33 40.17043 161.22196 35095 ft 550 kts 78°
2026-05-04 12:34 40.18359 161.32058 35078 ft 550 kts 78°
2026-05-04 12:34 40.19660 161.41868 35081 ft 551 kts 78°
2026-05-04 12:35 40.20964 161.51773 35084 ft 552 kts 78°
2026-05-04 12:35 40.22260 161.61687 35094 ft 553 kts 78°
2026-05-04 12:36 40.23550 161.71624 35090 ft 554 kts 78°
2026-05-04 12:36 40.24833 161.81572 35090 ft 554 kts 78°
2026-05-04 12:37 40.26100 161.91475 35090 ft 554 kts 78°
2026-05-04 12:37 40.27366 162.01427 35095 ft 554 kts 78°
2026-05-04 12:38 40.28622 162.11385 35095 ft 554 kts 78°
2026-05-04 12:38 40.29871 162.21348 35101 ft 554 kts 78°
2026-05-04 12:39 40.31110 162.31309 35113 ft 553 kts 78°
2026-05-04 12:39 40.32340 162.41267 35109 ft 553 kts 78°
2026-05-04 12:40 40.33562 162.51230 35112 ft 553 kts 78°
2026-05-04 12:40 40.34773 162.61186 35119 ft 553 kts 78°
2026-05-04 12:41 40.35977 162.71153 35121 ft 554 kts 78°
2026-05-04 12:41 40.37165 162.81058 35116 ft 554 kts 78°
2026-05-04 12:42 40.38355 162.91055 35121 ft 554 kts 78°
2026-05-04 12:42 40.39534 163.01042 35133 ft 554 kts 78°
2026-05-04 12:43 40.40706 163.11038 35129 ft 555 kts 78°
2026-05-04 12:43 40.41871 163.21053 35131 ft 555 kts 78°
2026-05-04 12:44 40.43026 163.31068 35151 ft 555 kts 78°
2026-05-04 12:44 40.44176 163.41107 35145 ft 556 kts 78°
2026-05-04 12:45 40.45316 163.51143 35144 ft 556 kts 78°
2026-05-04 12:45 40.46448 163.61193 35142 ft 556 kts 78°
2026-05-04 12:46 40.47567 163.71197 35149 ft 557 kts 78°
2026-05-04 12:46 40.48684 163.81271 35153 ft 558 kts 78°
2026-05-04 12:47 40.49794 163.91361 35149 ft 558 kts 78°
2026-05-04 12:47 40.50895 164.01459 35169 ft 558 kts 78°
2026-05-04 12:48 40.51989 164.11575 35156 ft 559 kts 78°
2026-05-04 12:48 40.53075 164.21703 35171 ft 559 kts 78°
2026-05-04 12:49 40.54145 164.31762 35158 ft 559 kts 78°
2026-05-04 12:49 40.55214 164.41907 35172 ft 560 kts 78°
2026-05-04 12:50 40.56275 164.52053 35170 ft 559 kts 78°
2026-05-04 12:50 40.57327 164.62205 35165 ft 559 kts 78°
2026-05-04 12:51 40.58192 164.70623 35167 ft 558 kts 78°
2026-05-04 12:51 40.59225 164.80746 35177 ft 558 kts 78°
2026-05-04 12:52 40.60247 164.90861 35169 ft 557 kts 78°
2026-05-04 12:52 40.61260 165.00971 35171 ft 557 kts 78°
2026-05-04 12:53 40.62257 165.11020 35184 ft 556 kts 78°
2026-05-04 12:53 40.63251 165.21124 35170 ft 557 kts 79°
2026-05-04 12:54 40.64239 165.31256 35173 ft 557 kts 79°
2026-05-04 12:54 40.65217 165.41378 35175 ft 557 kts 79°
2026-05-04 12:55 40.66187 165.51515 35181 ft 558 kts 79°
2026-05-04 12:55 40.67142 165.61598 35180 ft 558 kts 79°
2026-05-04 12:56 40.68095 165.71754 35182 ft 558 kts 79°
2026-05-04 12:56 40.69039 165.81905 35199 ft 559 kts 79°
2026-05-04 12:57 40.69977 165.92094 35188 ft 560 kts 79°
2026-05-04 12:57 40.70907 166.02290 35158 ft 560 kts 79°
2026-05-04 12:58 40.71826 166.12479 35181 ft 560 kts 79°
2026-05-04 12:58 40.72731 166.22615 35191 ft 560 kts 79°
2026-05-04 12:59 40.73635 166.32832 35191 ft 560 kts 79°
2026-05-04 12:59 40.74528 166.43037 35191 ft 560 kts 79°
2026-05-04 13:00 40.75414 166.53267 35209 ft 561 kts 79°
2026-05-04 13:00 40.76286 166.63436 35195 ft 561 kts 79°
2026-05-04 13:01 40.77156 166.73680 35194 ft 561 kts 79°
2026-05-04 13:01 40.78015 166.83927 35191 ft 561 kts 79°
2026-05-04 13:02 40.78866 166.94178 35192 ft 562 kts 79°
2026-05-04 13:02 40.79707 167.04421 35189 ft 561 kts 79°
2026-05-04 13:03 40.80540 167.14674 35194 ft 561 kts 79°
2026-05-04 13:03 40.81362 167.24918 35212 ft 561 kts 79°
2026-05-04 13:04 40.82173 167.35125 35200 ft 562 kts 79°
2026-05-04 13:04 40.82979 167.45388 35193 ft 562 kts 79°
2026-05-04 13:05 40.83777 167.55673 35192 ft 562 kts 79°
2026-05-04 13:05 40.84565 167.65954 35200 ft 562 kts 79°
2026-05-04 13:06 40.85338 167.76162 35201 ft 562 kts 79°
2026-05-04 13:06 40.86108 167.86440 35202 ft 562 kts 79°
2026-05-04 13:07 40.86868 167.96725 35209 ft 562 kts 79°
2026-05-04 13:07 40.87619 168.06995 35202 ft 562 kts 79°
2026-05-04 13:08 40.88361 168.17283 35200 ft 561 kts 79°
2026-05-04 13:08 40.89094 168.27560 35190 ft 561 kts 79°
2026-05-04 13:09 40.89817 168.37843 35207 ft 562 kts 79°
2026-05-04 13:09 40.90528 168.48074 35197 ft 562 kts 79°
2026-05-04 13:10 40.91234 168.58377 35191 ft 562 kts 79°
2026-05-04 13:10 40.91933 168.68702 35193 ft 562 kts 79°
2026-05-04 13:11 40.92617 168.78958 35198 ft 563 kts 79°
2026-05-04 13:11 40.93297 168.89284 35190 ft 563 kts 79°
2026-05-04 13:12 40.93968 168.99619 35190 ft 563 kts 79°
2026-05-04 13:12 40.94629 169.09949 35187 ft 563 kts 79°
2026-05-04 13:13 40.95277 169.20212 35185 ft 563 kts 79°
2026-05-04 13:13 40.95920 169.30545 35185 ft 563 kts 79°
2026-05-04 13:14 40.96553 169.40865 35187 ft 563 kts 79°
2026-05-04 13:14 40.97177 169.51193 35189 ft 563 kts 79°
2026-05-04 13:15 40.97793 169.61538 35184 ft 564 kts 79°
2026-05-04 13:15 40.98400 169.71890 35185 ft 563 kts 79°
2026-05-04 13:16 40.98996 169.82227 35203 ft 563 kts 79°
2026-05-04 13:16 40.99585 169.92577 35186 ft 564 kts 79°
2026-05-04 13:17 41.00152 170.02850 35183 ft 564 kts 80°
2026-05-04 13:17 41.00611 170.13230 35183 ft 564 kts 81°
2026-05-04 13:18 41.01014 170.23616 35178 ft 565 kts 81°
2026-05-04 13:18 41.01420 170.34008 35184 ft 564 kts 81°
2026-05-04 13:19 41.01832 170.44376 35185 ft 564 kts 81°
2026-05-04 13:19 41.02237 170.54688 35191 ft 564 kts 81°
2026-05-04 13:20 41.02634 170.65065 35184 ft 564 kts 81°
2026-05-04 13:20 41.03021 170.75451 35173 ft 564 kts 81°
2026-05-04 13:21 41.03399 170.85853 35170 ft 565 kts 81°
2026-05-04 13:21 41.03766 170.96243 35180 ft 565 kts 81°
2026-05-04 13:22 41.04126 171.06657 35169 ft 565 kts 81°
2026-05-04 13:22 41.04475 171.17056 35169 ft 566 kts 81°
2026-05-04 13:23 41.04816 171.27473 35167 ft 566 kts 81°
2026-05-04 13:23 41.05145 171.37830 35167 ft 567 kts 81°
2026-05-04 13:24 41.05468 171.48268 35163 ft 567 kts 81°
2026-05-04 13:24 41.05781 171.58708 35156 ft 567 kts 81°
2026-05-04 13:25 41.06233 171.74405 35159 ft 568 kts 81°
2026-05-04 13:25 41.06524 171.84871 35153 ft 568 kts 81°
2026-05-04 13:26 41.06804 171.95326 35153 ft 568 kts 81°
2026-05-04 13:26 41.07073 172.05723 35178 ft 567 kts 81°
2026-05-04 13:27 41.07334 172.16190 35150 ft 567 kts 81°
2026-05-04 13:27 41.07586 172.26646 35146 ft 566 kts 81°
2026-05-04 13:28 41.07828 172.37081 35151 ft 566 kts 81°
2026-05-04 13:28 41.08061 172.47504 35153 ft 566 kts 81°
2026-05-04 13:29 41.08283 172.57878 35143 ft 566 kts 81°
2026-05-04 13:29 41.08497 172.68309 35142 ft 566 kts 81°
2026-05-04 13:30 41.08701 172.78743 35144 ft 566 kts 81°
2026-05-04 13:30 41.08897 172.89197 35137 ft 566 kts 81°
2026-05-04 13:31 41.09083 172.99651 35137 ft 566 kts 81°
2026-05-04 13:31 41.09258 173.10027 35132 ft 567 kts 82°
2026-05-04 13:32 41.09425 173.20473 35146 ft 567 kts 82°
2026-05-04 13:32 41.09583 173.30952 35126 ft 568 kts 82°
2026-05-04 13:33 41.09731 173.41427 35123 ft 568 kts 82°
2026-05-04 13:33 41.09870 173.51897 35124 ft 568 kts 82°
2026-05-04 13:34 41.10000 173.62386 35123 ft 570 kts 82°
2026-05-04 13:34 41.10120 173.72883 35119 ft 570 kts 82°
2026-05-04 13:35 41.10282 173.88618 35114 ft 570 kts 82°
2026-05-04 13:36 41.10378 173.99142 35121 ft 571 kts 82°
2026-05-04 13:36 41.10466 174.09692 35112 ft 571 kts 82°
2026-05-04 13:37 41.10543 174.20226 35118 ft 572 kts 82°
2026-05-04 13:37 41.10611 174.30707 35140 ft 572 kts 82°
2026-05-04 13:38 41.10670 174.41270 35105 ft 573 kts 82°
2026-05-04 13:38 41.10711 174.50077 35106 ft 574 kts 82°
2026-05-04 13:39 41.10752 174.60655 35097 ft 574 kts 82°
2026-05-04 13:39 41.10783 174.71263 35112 ft 575 kts 82°
2026-05-04 13:40 41.10805 174.81895 35097 ft 576 kts 82°
2026-05-04 13:40 41.10816 174.92474 35087 ft 577 kts 82°
2026-05-04 13:41 41.10818 175.03121 35085 ft 577 kts 82°
2026-05-04 13:41 41.10810 175.13771 35085 ft 578 kts 82°
2026-05-04 13:42 41.10780 175.29707 35075 ft 578 kts 82°
2026-05-04 13:42 41.10747 175.40377 35076 ft 578 kts 82°
2026-05-04 13:43 41.10705 175.51048 35068 ft 579 kts 82°
2026-05-04 13:43 41.10653 175.61732 35069 ft 579 kts 82°
2026-05-04 13:44 41.10591 175.72402 35067 ft 579 kts 82°
2026-05-04 13:44 41.10520 175.83000 35099 ft 579 kts 82°
2026-05-04 13:45 41.10438 175.93709 35062 ft 579 kts 82°
2026-05-04 13:45 41.10347 176.04398 35058 ft 579 kts 82°
2026-05-04 13:46 41.10246 176.15026 35058 ft 579 kts 82°
2026-05-04 13:46 41.10134 176.25718 35063 ft 580 kts 82°
2026-05-04 13:47 41.10014 176.36404 35059 ft 580 kts 82°
2026-05-04 13:47 41.09882 176.47118 35059 ft 580 kts 82°
2026-05-04 13:48 41.09741 176.57840 35051 ft 581 kts 82°
2026-05-04 13:48 41.09589 176.68550 35050 ft 581 kts 82°
2026-05-04 13:49 41.09429 176.79193 35048 ft 581 kts 82°
2026-05-04 13:49 41.09258 176.89903 35050 ft 581 kts 83°
2026-05-04 13:50 41.09077 177.00628 35051 ft 582 kts 83°
2026-05-04 13:50 41.08887 177.11352 35040 ft 582 kts 83°
2026-05-04 13:51 41.08686 177.22030 35037 ft 582 kts 83°
2026-05-04 13:51 41.08474 177.32779 35044 ft 582 kts 83°
2026-05-04 13:52 41.08139 177.48893 35035 ft 583 kts 83°
2026-05-04 13:53 41.07902 177.59654 35030 ft 584 kts 83°
2026-05-04 13:53 41.07655 177.70419 35030 ft 584 kts 83°
2026-05-04 13:54 41.07267 177.86585 35028 ft 585 kts 83°
2026-05-04 13:55 41.06856 178.02674 35025 ft 585 kts 83°
2026-05-04 13:55 41.06421 178.18850 35025 ft 586 kts 83°
2026-05-04 13:56 41.06118 178.29666 35023 ft 587 kts 83°
2026-05-04 13:57 41.05643 178.45897 35022 ft 587 kts 84°
2026-05-04 13:58 41.04975 178.67562 35021 ft 590 kts 83°
2026-05-04 13:58 41.04446 178.83784 35013 ft 590 kts 84°
2026-05-04 13:59 41.04080 178.94653 34998 ft 591 kts 83°
2026-05-04 14:00 41.03511 179.10976 35001 ft 591 kts 83°
2026-05-04 14:00 41.02918 179.27310 35048 ft 592 kts 83°
2026-05-04 14:01 41.02513 179.38158 35008 ft 593 kts 84°
2026-05-04 14:02 41.01878 179.54542 34994 ft 594 kts 84°
2026-05-04 14:02 41.01443 179.65463 35014 ft 594 kts 84°
2026-05-04 14:03 41.00997 179.76404 34997 ft 594 kts 84°
2026-05-04 14:03 41.00541 179.87337 34987 ft 594 kts 84°
2026-05-04 14:04 40.99832 -179.96360 35021 ft 595 kts 85°
2026-05-04 14:04 40.99227 -179.85411 34995 ft 597 kts 86°
2026-05-04 14:05 40.98231 -179.68962 34989 ft 597 kts 86°
2026-05-04 14:06 40.97575 -179.57989 34992 ft 597 kts 86°
2026-05-04 14:06 40.96921 -179.47022 34986 ft 598 kts 86°
2026-05-04 14:07 40.96262 -179.36130 34979 ft 598 kts 86°
2026-05-04 14:07 40.95585 -179.25152 34979 ft 598 kts 86°
2026-05-04 14:08 40.94897 -179.14176 34982 ft 599 kts 86°
2026-05-04 14:08 40.94198 -179.03197 34982 ft 600 kts 86°
2026-05-04 14:09 40.93125 -178.86669 34976 ft 601 kts 86°
2026-05-04 14:10 40.92032 -178.70185 34976 ft 604 kts 86°
2026-05-04 14:10 40.91283 -178.59099 34973 ft 605 kts 86°
2026-05-04 14:11 40.90524 -178.48031 34954 ft 604 kts 87°
2026-05-04 14:11 40.89364 -178.31424 34970 ft 605 kts 87°
2026-05-04 14:12 40.88584 -178.20427 34973 ft 605 kts 87°
2026-05-04 14:13 40.87385 -178.03798 34982 ft 605 kts 87°
2026-05-04 14:13 40.86573 -177.92719 34977 ft 606 kts 87°
2026-05-04 14:14 40.85751 -177.81678 34969 ft 607 kts 87°
2026-05-04 14:14 40.84493 -177.65032 34971 ft 608 kts 88°
2026-05-04 14:15 40.82773 -177.42783 34965 ft 608 kts 88°
2026-05-04 14:16 40.81455 -177.26107 34975 ft 608 kts 88°
2026-05-04 14:17 40.80115 -177.09459 34959 ft 608 kts 88°
2026-05-04 14:18 40.78757 -176.92892 34986 ft 607 kts 89°
2026-05-04 14:19 40.76905 -176.70754 34961 ft 606 kts 89°
2026-05-04 14:19 40.75966 -176.59720 34963 ft 605 kts 89°
2026-05-04 14:20 40.75018 -176.48697 34971 ft 604 kts 90°
2026-05-04 14:20 40.74058 -176.37684 34961 ft 603 kts 90°
2026-05-04 14:21 40.72604 -176.21219 34961 ft 602 kts 90°
2026-05-04 14:21 40.71630 -176.10331 34961 ft 601 kts 91°
2026-05-04 14:22 40.70642 -175.99413 34959 ft 599 kts 91°
2026-05-04 14:22 40.69645 -175.88516 34955 ft 598 kts 91°
2026-05-04 14:23 40.68134 -175.72204 34963 ft 597 kts 91°
2026-05-04 14:24 40.67115 -175.61336 34965 ft 597 kts 91°
2026-05-04 14:24 40.66091 -175.50534 34968 ft 597 kts 91°
2026-05-04 14:25 40.65051 -175.39665 34994 ft 598 kts 92°
2026-05-04 14:25 40.63470 -175.23377 34967 ft 596 kts 92°
2026-05-04 14:26 40.62407 -175.12563 34962 ft 595 kts 92°
2026-05-04 14:26 40.61344 -175.01844 34963 ft 593 kts 92°
2026-05-04 14:27 40.60267 -174.91085 34968 ft 591 kts 93°
2026-05-04 14:27 40.59183 -174.80364 34968 ft 590 kts 93°
2026-05-04 14:28 40.58277 -174.71478 34966 ft 589 kts 93°
2026-05-04 14:28 40.57000 -174.59052 34976 ft 588 kts 94°
2026-05-04 14:29 40.54964 -174.39553 34968 ft 588 kts 93°
2026-05-04 14:30 40.53839 -174.28891 34978 ft 589 kts 93°
2026-05-04 14:31 40.52126 -174.12853 34971 ft 590 kts 94°
2026-05-04 14:32 40.49807 -173.91509 34964 ft 589 kts 94°
2026-05-04 14:32 40.48645 -173.80943 34972 ft 587 kts 95°
2026-05-04 14:33 40.47470 -173.70356 34964 ft 584 kts 95°
2026-05-04 14:33 40.46288 -173.59801 34961 ft 582 kts 95°
2026-05-04 14:34 40.45104 -173.49302 34966 ft 580 kts 96°
2026-05-04 14:34 40.43914 -173.38836 34963 ft 579 kts 96°
2026-05-04 14:35 40.42717 -173.28405 34961 ft 578 kts 96°
2026-05-04 14:35 40.41508 -173.17943 34962 ft 579 kts 96°
2026-05-04 14:36 40.40298 -173.07563 34971 ft 579 kts 96°
2026-05-04 14:36 40.39070 -172.97117 34960 ft 579 kts 97°
2026-05-04 14:37 40.37833 -172.86682 34961 ft 578 kts 97°
2026-05-04 14:37 40.36589 -172.76260 34976 ft 578 kts 97°
2026-05-04 14:38 40.35337 -172.65859 34956 ft 576 kts 97°
2026-05-04 14:38 40.34088 -172.55563 34953 ft 575 kts 97°
2026-05-04 14:39 40.32823 -172.45220 34959 ft 574 kts 97°
2026-05-04 14:39 40.31553 -172.34905 34962 ft 572 kts 98°
2026-05-04 14:40 40.29635 -172.19477 34961 ft 571 kts 98°
2026-05-04 14:40 40.28347 -172.09215 34968 ft 571 kts 98°
2026-05-04 14:41 40.27060 -171.99032 34967 ft 571 kts 98°
2026-05-04 14:42 40.24436 -171.78502 34977 ft 572 kts 98°
2026-05-04 14:42 40.23109 -171.68235 34975 ft 572 kts 98°
2026-05-04 14:43 40.21773 -171.57967 34990 ft 572 kts 99°
2026-05-04 14:43 40.20429 -171.47716 34980 ft 572 kts 99°
2026-05-04 14:44 40.19075 -171.37467 34982 ft 571 kts 99°
2026-05-04 14:44 40.17724 -171.27300 34992 ft 570 kts 99°
2026-05-04 14:45 40.16358 -171.17097 34997 ft 569 kts 99°
2026-05-04 14:45 40.14983 -171.06903 34995 ft 568 kts 99°
2026-05-04 14:46 40.13604 -170.96742 35002 ft 568 kts 100°
2026-05-04 14:46 40.12217 -170.86590 35015 ft 567 kts 100°
2026-05-04 14:47 40.10819 -170.76432 35010 ft 567 kts 100°
2026-05-04 14:47 40.09421 -170.66345 35012 ft 568 kts 100°
2026-05-04 14:48 40.08003 -170.56174 35027 ft 571 kts 100°
2026-05-04 14:48 40.06569 -170.45958 35047 ft 573 kts 100°
2026-05-04 14:49 40.05119 -170.35699 35037 ft 574 kts 100°
2026-05-04 14:49 40.03660 -170.25441 35037 ft 575 kts 100°
2026-05-04 14:50 40.02194 -170.15201 35042 ft 574 kts 101°
2026-05-04 14:50 40.00727 -170.05016 35044 ft 573 kts 101°
2026-05-04 14:51 39.99586 -169.94769 35055 ft 570 kts 93°
2026-05-04 14:51 39.99034 -169.84464 35062 ft 569 kts 92°
2026-05-04 14:52 39.98505 -169.74168 35058 ft 568 kts 92°
2026-05-04 14:52 39.97932 -169.63958 35071 ft 567 kts 93°
2026-05-04 14:53 39.97320 -169.53721 35076 ft 566 kts 93°
2026-05-04 14:53 39.96696 -169.43500 35080 ft 565 kts 93°
2026-05-04 14:54 39.96067 -169.33289 35091 ft 565 kts 94°
2026-05-04 14:54 39.95433 -169.23095 35096 ft 564 kts 94°
2026-05-04 14:55 39.94789 -169.12891 35095 ft 564 kts 94°
2026-05-04 14:55 39.94140 -169.02746 35087 ft 564 kts 94°
2026-05-04 14:56 39.93478 -168.92548 35100 ft 564 kts 94°
2026-05-04 14:56 39.92809 -168.82374 35112 ft 563 kts 94°
2026-05-04 14:57 39.92131 -168.72202 35113 ft 563 kts 94°
2026-05-04 14:57 39.91444 -168.62031 35141 ft 562 kts 94°
2026-05-04 14:58 39.90750 -168.51898 35115 ft 561 kts 95°
2026-05-04 14:58 39.90050 -168.41798 35106 ft 559 kts 95°
2026-05-04 14:59 39.89347 -168.31788 35107 ft 556 kts 95°
2026-05-04 15:00 39.88277 -168.16771 35117 ft 554 kts 95°
2026-05-04 15:00 39.87554 -168.06787 35130 ft 554 kts 95°
2026-05-04 15:01 39.86453 -167.91798 35117 ft 555 kts 95°
2026-05-04 15:01 39.85707 -167.81792 35130 ft 555 kts 95°
2026-05-04 15:02 39.84952 -167.71791 35140 ft 555 kts 95°
2026-05-04 15:02 39.84188 -167.61785 35142 ft 555 kts 95°
2026-05-04 15:03 39.83420 -167.51833 35147 ft 555 kts 96°
2026-05-04 15:03 39.82641 -167.41848 35137 ft 554 kts 96°
2026-05-04 15:04 39.81854 -167.31886 35147 ft 553 kts 96°
2026-05-04 15:04 39.81060 -167.21935 35139 ft 552 kts 96°
2026-05-04 15:05 39.80259 -167.12017 35153 ft 550 kts 96°
2026-05-04 15:05 39.79453 -167.02125 35158 ft 550 kts 96°
2026-05-04 15:06 39.78643 -166.92304 35164 ft 549 kts 96°
2026-05-04 15:07 39.77407 -166.77497 35178 ft 548 kts 96°
2026-05-04 15:07 39.76574 -166.67650 35166 ft 548 kts 96°
2026-05-04 15:08 39.75733 -166.57806 35179 ft 547 kts 96°
2026-05-04 15:08 39.74889 -166.48034 35170 ft 547 kts 96°
2026-05-04 15:09 39.74032 -166.38204 35185 ft 547 kts 97°
2026-05-04 15:09 39.73168 -166.28394 35182 ft 546 kts 97°
2026-05-04 15:10 39.71856 -166.13667 35179 ft 546 kts 97°
2026-05-04 15:11 39.70533 -165.99033 35193 ft 546 kts 97°
2026-05-04 15:11 39.69636 -165.89229 35194 ft 546 kts 97°
2026-05-04 15:12 39.68732 -165.79445 35191 ft 546 kts 97°
2026-05-04 15:12 39.67820 -165.69661 35189 ft 546 kts 97°
2026-05-04 15:13 39.66901 -165.59891 35197 ft 546 kts 97°
2026-05-04 15:13 39.65972 -165.50108 35196 ft 546 kts 97°
2026-05-04 15:14 39.65035 -165.40324 35193 ft 546 kts 98°
2026-05-04 15:14 39.64096 -165.30613 35201 ft 546 kts 98°
2026-05-04 15:15 39.63141 -165.20827 35209 ft 546 kts 98°
2026-05-04 15:15 39.62343 -165.12706 35206 ft 546 kts 98°
2026-05-04 15:16 39.60887 -164.98049 35204 ft 546 kts 98°
2026-05-04 15:17 39.59412 -164.83398 35210 ft 546 kts 98°
2026-05-04 15:17 39.57924 -164.68799 35212 ft 546 kts 98°
2026-05-04 15:18 39.56918 -164.59033 35218 ft 546 kts 98°
2026-05-04 15:19 39.55392 -164.44375 35219 ft 546 kts 98°
2026-05-04 15:19 39.53849 -164.29729 35212 ft 546 kts 99°
2026-05-04 15:20 39.52811 -164.19988 35222 ft 546 kts 99°
2026-05-04 15:20 39.51765 -164.10244 35219 ft 546 kts 99°
2026-05-04 15:21 39.50711 -164.00505 35224 ft 546 kts 99°
2026-05-04 15:22 39.49120 -163.85946 35228 ft 546 kts 99°
2026-05-04 15:22 39.47504 -163.71332 35232 ft 547 kts 99°
2026-05-04 15:23 39.46415 -163.61586 35220 ft 548 kts 99°
2026-05-04 15:23 39.45316 -163.51818 35232 ft 548 kts 99°
2026-05-04 15:24 39.43089 -163.32261 35234 ft 550 kts 100°
2026-05-04 15:25 39.41961 -163.22472 35232 ft 551 kts 100°
2026-05-04 15:26 39.40259 -163.07828 35238 ft 552 kts 100°
2026-05-04 15:26 39.38524 -162.93080 35224 ft 553 kts 100°
2026-05-04 15:27 39.36771 -162.78337 35241 ft 554 kts 100°
2026-05-04 15:28 39.34993 -162.63545 35247 ft 554 kts 100°
2026-05-04 15:29 39.33198 -162.48776 35246 ft 555 kts 101°
2026-05-04 15:30 39.28936 -162.14348 35240 ft 555 kts 101°
2026-05-04 15:31 39.27077 -161.99587 35247 ft 556 kts 101°
2026-05-04 15:32 39.23938 -161.75016 35249 ft 557 kts 101°
2026-05-04 15:34 39.20735 -161.50372 35238 ft 556 kts 101°
2026-05-04 15:34 39.18805 -161.35720 35248 ft 554 kts 101°
2026-05-04 15:35 39.16848 -161.21019 35249 ft 554 kts 101°
2026-05-04 15:36 39.14873 -161.06330 35256 ft 554 kts 102°
2026-05-04 15:36 39.13550 -160.96561 35255 ft 554 kts 102°
2026-05-04 15:37 39.12214 -160.86771 35240 ft 554 kts 102°
2026-05-04 15:37 39.10880 -160.77050 35248 ft 555 kts 102°
2026-05-04 15:38 39.09528 -160.67265 35261 ft 555 kts 102°
2026-05-04 15:38 39.08164 -160.57462 35259 ft 556 kts 102°
2026-05-04 15:39 39.06793 -160.47665 35250 ft 556 kts 102°
2026-05-04 15:40 39.04718 -160.32949 35266 ft 557 kts 102°
2026-05-04 15:40 39.03324 -160.23141 35262 ft 557 kts 102°
2026-05-04 15:41 39.01921 -160.13327 35258 ft 557 kts 102°
2026-05-04 15:41 39.00771 -160.03471 35258 ft 558 kts 94°
2026-05-04 15:42 39.00908 -159.93573 35272 ft 558 kts 83°
2026-05-04 15:42 39.02196 -159.83737 35257 ft 556 kts 77°
2026-05-04 15:43 39.03673 -159.73988 35272 ft 556 kts 77°
2026-05-04 15:43 39.05113 -159.64198 35264 ft 556 kts 77°
2026-05-04 15:44 39.06493 -159.54470 35263 ft 555 kts 77°
2026-05-04 15:44 39.07857 -159.44690 35275 ft 555 kts 78°
2026-05-04 15:45 39.09213 -159.34922 35266 ft 554 kts 78°
2026-05-04 15:45 39.10565 -159.25142 35268 ft 553 kts 78°
2026-05-04 15:46 39.11906 -159.15391 35262 ft 552 kts 78°
2026-05-04 15:46 39.13237 -159.05654 35267 ft 552 kts 78°
2026-05-04 15:47 39.14559 -158.95917 35273 ft 551 kts 78°
2026-05-04 15:47 39.15871 -158.86186 35267 ft 551 kts 78°
2026-05-04 15:48 39.17173 -158.76468 35273 ft 551 kts 78°
2026-05-04 15:48 39.19112 -158.61876 35270 ft 550 kts 78°
2026-05-04 15:49 39.20395 -158.52143 35257 ft 551 kts 78°
2026-05-04 15:49 39.21661 -158.42465 35269 ft 550 kts 78°
2026-05-04 15:50 39.22928 -158.32724 35268 ft 550 kts 78°
2026-05-04 15:50 39.24184 -158.22994 35269 ft 549 kts 78°
2026-05-04 15:51 39.25433 -158.13262 35287 ft 549 kts 78°
2026-05-04 15:51 39.26662 -158.03611 35273 ft 548 kts 78°
2026-05-04 15:52 39.27889 -157.93914 35266 ft 547 kts 78°
2026-05-04 15:52 39.29105 -157.84230 35265 ft 546 kts 78°